Location: Hannover
(52.3723°N, 9.7339°E)
Time: 02:08:43
(UTC+02:00)

ISS - Pass Details

Date: 25 March 2019
Orbit: 408 x 410 km, 51.6° (Epoch: 21 April)

Event Time Altitude Azimuth Distance (km) Brightness Sun altitude
Rises 21:49:09 0° 268° (W) 2,337 0.6 -26.4°
Reaches altitude 10° 21:51:14 10° 267° (W) 1,475 -0.5 -26.6°
Enters shadow 21:51:50 14° 267° (W) 1,235 -0.9 -26.6°
